Regional Weather Roundup
Issued by NWS

Home | Current Version | Previous Version | Graphics & Text | Print | Product List | Glossary On
Versions: 1 2 3 4 5 6 7 8 9 10 11 12 13 14 15 16 17 18 19 20 21 22 23 24 25 26 27 28 29 30 31 32 33 34 35 36 37 38 39 40 41 42 43 44 45 46 47 48 49 50
000
ASUS45 KBOI 062210
RWRID

IDAHO REGIONAL WEATHER ROUNDUP
NATIONAL WEATHER SERVICE BOISE ID
300 PM MST TUE DEC 06 2016

NOTE: "FAIR" INDICATES FEW OR NO CLOUDS BELOW 12000 FEET
WITH NO SIGNIFICANT WEATHER AND/OR OBSTRUCTIONS TO VISIBILITY

IDZ012-014-062300-
SOUTHWEST IDAHO


CITY           SKY/WX    TMP DP  RH WIND       PRES   REMARKS
BOISE          CLOUDY    26  20  77 W3        29.95R
CALDWELL       CLOUDY    28  21  75 W6        29.99R WCI  22
$$

IDZ016-017-062300-
SOUTHCENTRAL IDAHO


CITY           SKY/WX    TMP DP  RH WIND       PRES   REMARKS
BURLEY         CLOUDY    22  19  89 CALM      29.82R
JEROME         FLURRIES  21  18  88 W5        29.85R WCI  15
TWIN FALLS     CLOUDY    23  19  86 W12       29.85R WCI  12
$$

IDZ019>023-062300-
SOUTHEAST IDAHO


CITY           SKY/WX    TMP DP  RH WIND       PRES   REMARKS
IDAHO FALLS    CLOUDY    20  10  65 NE5       29.80S WCI  13
POCATELLO      LGT SNOW  20  15  81 E7        29.80F WCI  11
REXBURG        LGT SNOW  16  10  77 CALM      29.80S
$$

IDZ006-010-011-018-031-032-062300-
CENTRAL IDAHO MOUNTAINS


CITY           SKY/WX    TMP DP  RH WIND       PRES   REMARKS
MCCALL         CLOUDY    20  13  74 W7        29.79R WCI  11
HAILEY         PTSUNNY   18  14  86 SE6       29.78R WCI   9
STANLEY          N/A     11   4  73 CALM      29.73R
SALMON         CLOUDY    14   9  79 CALM      29.89R
CHALLIS        LGT SNOW  15  11  83 CALM      29.80R FOG
$$

IDZ002-004-006-007-026-062300-
NORTHERN IDAHO


CITY           SKY/WX    TMP DP  RH WIND       PRES   REMARKS
LEWISTON       LGT SNOW  31  27  85 W6        30.03R FOG     WCI  25
LOWELL         NOT AVBL
COEUR D`ALENE  SUNNY     29  15  56 N14       30.02R WCI  18
MULLAN PASS    LGT SNOW  10   7  87 CALM      29.78R FOG
$$



USA.gov is the U.S. government's official web portal to all federal, state and local government web resources and services.